TimeCDT,TemperatureF,Dew PointF,Humidity,Sea Level PressureIn,VisibilityMPH,Wind Direction,Wind SpeedMPH,Gust SpeedMPH,PrecipitationIn,Events,Conditions,WindDirDegrees,DateUTC
12:32 AM,44.2,41.9,91,29.74,10.0,ESE,10.4,-,N/A,,Clear,120,2012-10-21 05:32:00
12:52 AM,44.1,41.9,92,29.75,10.0,ESE,11.5,-,N/A,,Clear,110,2012-10-21 05:52:00
1:12 AM,43.7,41.4,91,29.75,10.0,ESE,11.5,-,N/A,,Clear,110,2012-10-21 06:12:00
1:32 AM,43.7,41.2,91,29.75,10.0,ESE,11.5,-,N/A,,Clear,120,2012-10-21 06:32:00
2:12 AM,43.5,41.0,91,29.74,7.0,ESE,10.4,-,N/A,,Clear,120,2012-10-21 07:12:00
2:32 AM,42.8,40.6,92,29.74,7.0,ESE,10.4,-,N/A,,Clear,110,2012-10-21 07:32:00
3:12 AM,41.9,39.7,92,29.74,7.0,East,6.9,-,N/A,,Clear,90,2012-10-21 08:12:00
3:32 AM,41.5,40.1,95,29.74,7.0,East,5.8,-,N/A,,Clear,90,2012-10-21 08:32:00
3:52 AM,41.5,40.1,95,29.74,7.0,East,8.1,-,N/A,,Clear,100,2012-10-21 08:52:00
4:12 AM,41.5,40.1,95,29.73,7.0,East,8.1,-,N/A,,Clear,100,2012-10-21 09:12:00
4:32 AM,41.9,40.1,93,29.72,7.0,East,10.4,-,N/A,,Clear,90,2012-10-21 09:32:00
5:12 AM,42.3,39.9,91,29.73,7.0,ESE,9.2,-,N/A,,Clear,110,2012-10-21 10:12:00
6:12 AM,43.0,40.1,90,29.71,10.0,ESE,13.8,-,N/A,,Scattered Clouds,110,2012-10-21 11:12:00
6:32 AM,42.8,40.3,91,29.71,10.0,East,11.5,-,N/A,,Scattered Clouds,90,2012-10-21 11:32:00
6:52 AM,42.8,40.1,90,29.72,10.0,East,4.6,-,N/A,,Scattered Clouds,90,2012-10-21 11:52:00
7:12 AM,42.6,39.9,90,29.71,10.0,East,6.9,-,N/A,,Clear,90,2012-10-21 12:12:00
7:32 AM,42.1,39.6,91,29.70,7.0,East,6.9,-,N/A,,Clear,100,2012-10-21 12:32:00
8:32 AM,42.8,40.3,91,29.70,7.0,East,9.2,-,N/A,,Clear,100,2012-10-21 13:32:00
8:52 AM,43.5,40.6,90,29.70,7.0,ESE,11.5,-,N/A,,Clear,110,2012-10-21 13:52:00
9:32 AM,46.9,42.3,84,29.74,10.0,ESE,8.1,-,N/A,,Clear,120,2012-10-21 14:32:00
10:12 AM,48.7,43.3,82,29.74,10.0,SE,5.8,-,N/A,,Clear,130,2012-10-21 15:12:00
10:32 AM,50.0,43.9,79,29.76,10.0,Calm,Calm,-,N/A,,Clear,0,2012-10-21 15:32:00
10:52 AM,51.6,45.0,78,29.75,7.0,SSE,3.5,-,N/A,,Clear,150,2012-10-21 15:52:00
11:12 AM,53.1,46.0,77,29.75,10.0,SSE,8.1,-,N/A,,Clear,160,2012-10-21 16:12:00
11:32 AM,55.0,46.8,74,29.75,10.0,SSE,6.9,-,N/A,,Clear,160,2012-10-21 16:32:00
12:12 PM,56.3,45.7,68,29.76,10.0,SW,4.6,-,N/A,,Clear,230,2012-10-21 17:12:00
12:32 PM,56.8,45.9,67,29.76,10.0,WSW,4.6,-,N/A,,Clear,240,2012-10-21 17:32:00
12:52 PM,59.0,46.4,63,29.76,10.0,WSW,6.9,-,N/A,,Clear,250,2012-10-21 17:52:00
1:12 PM,59.2,46.6,63,29.78,10.0,WNW,8.1,-,N/A,,Clear,300,2012-10-21 18:12:00
1:32 PM,58.6,45.7,62,29.78,10.0,West,4.6,-,N/A,,Clear,270,2012-10-21 18:32:00
1:52 PM,58.3,46.0,64,29.78,10.0,WNW,9.2,-,N/A,,Clear,290,2012-10-21 18:52:00
2:11 PM,58.6,45.7,62,29.78,10.0,West,8.1,-,N/A,,Clear,280,2012-10-21 19:11:00
2:32 PM,58.6,46.0,63,29.80,10.0,West,10.4,-,N/A,,Clear,280,2012-10-21 19:32:00
2:52 PM,58.6,46.2,63,29.80,7.0,NW,10.4,-,N/A,,Clear,310,2012-10-21 19:52:00
3:12 PM,58.6,45.1,61,29.81,10.0,NW,11.5,-,N/A,,Clear,310,2012-10-21 20:12:00
3:32 PM,58.1,45.7,63,29.83,10.0,WNW,10.4,18.4,N/A,,Clear,300,2012-10-21 20:32:00
3:52 PM,57.2,45.3,65,29.83,10.0,NW,12.7,-,N/A,,Clear,310,2012-10-21 20:52:00
4:12 PM,54.9,45.5,71,29.84,10.0,NW,10.4,-,N/A,,Clear,310,2012-10-21 21:12:00
4:32 PM,54.1,45.5,73,29.83,10.0,NNW,10.4,-,N/A,,Clear,330,2012-10-21 21:32:00
4:52 PM,54.9,45.5,71,29.84,10.0,NNW,13.8,-,N/A,,Clear,330,2012-10-21 21:52:00
5:12 PM,54.1,45.9,74,29.85,10.0,NNW,9.2,-,N/A,,Clear,340,2012-10-21 22:12:00
5:32 PM,54.0,46.2,75,29.86,10.0,NW,10.4,-,N/A,,Mostly Cloudy,320,2012-10-21 22:32:00
5:52 PM,52.7,45.9,78,29.87,7.0,NW,6.9,-,N/A,,Mostly Cloudy,320,2012-10-21 22:52:00
6:12 PM,52.3,46.4,80,29.88,7.0,NW,9.2,-,N/A,,Mostly Cloudy,320,2012-10-21 23:12:00
6:32 PM,52.3,46.4,80,29.88,7.0,NNW,8.1,-,N/A,,Overcast,330,2012-10-21 23:32:00
6:52 PM,50.2,45.1,83,29.89,10.0,NW,6.9,-,N/A,,Scattered Clouds,320,2012-10-21 23:52:00
7:12 PM,49.3,45.0,85,29.89,10.0,NW,6.9,-,N/A,,Clear,320,2012-10-22 00:12:00
7:32 PM,49.1,45.1,86,29.90,7.0,NW,8.1,-,N/A,,Clear,320,2012-10-22 00:32:00
7:52 PM,48.7,45.0,87,29.91,7.0,NW,6.9,-,N/A,,Clear,320,2012-10-22 00:52:00
8:12 PM,48.7,45.0,87,29.92,7.0,NW,6.9,-,N/A,,Clear,320,2012-10-22 01:12:00
8:32 PM,48.4,44.8,87,29.93,7.0,NW,6.9,-,N/A,,Clear,320,2012-10-22 01:32:00
8:52 PM,47.8,44.2,87,29.93,7.0,NNW,6.9,-,N/A,,Clear,330,2012-10-22 01:52:00
9:12 PM,47.3,44.1,88,29.94,7.0,NW,8.1,-,N/A,,Clear,320,2012-10-22 02:12:00
9:32 PM,46.9,43.3,87,29.94,7.0,WNW,6.9,-,N/A,,Clear,300,2012-10-22 02:32:00
9:52 PM,44.6,42.3,91,29.94,7.0,WNW,5.8,-,N/A,,Clear,300,2012-10-22 02:52:00
10:12 PM,43.7,42.1,94,29.94,7.0,NW,8.1,-,N/A,,Clear,310,2012-10-22 03:12:00
10:31 PM,42.8,40.6,92,29.94,7.0,WNW,5.8,-,N/A,,Clear,290,2012-10-22 03:31:00
10:52 PM,43.7,42.1,94,29.94,7.0,WNW,8.1,-,N/A,,Clear,300,2012-10-22 03:52:00
11:32 PM,43.7,42.1,94,29.94,5.0,WNW,8.1,-,N/A,,Clear,300,2012-10-22 04:32:00
11:52 PM,43.7,42.4,95,29.94,3.0,NW,10.4,-,N/A,,Clear,310,2012-10-22 04:52:00